Torna al catalogo

ARIANE 44L+ DEB

AttivoGTO
NORAD 29026·DEBRIS·🇫🇷 France

Lanciato Apr 15, 1992 da Guiana Space Centre

Loading…

TLE

ObsoletoSource: Space-Track

Epoca: Sep 14, 2026, 04:26 UTC

1 29026U 92021S   26257.18503057 -.00000166  00000-0  00000-0 0  9998
2 29026   3.6061 103.5844 6949965 268.8404 314.6881  2.23815084109860

Traccia ARIANE 44L+ DEB in tempo reale con AllMySat

Download on the App Store